This demonstration page uses our WeatherBlox Daily Observations layout. Learn more.

Left ArrowRight Arrow

38.20091, -84.87328

Hourly Observations for March 7, 2022

Temp ( °F °C ) Dew Point ( °F °C ) Humidity (%) Winds ( mph kmh ) Pressure ( in mb ) Visibility ( mi km ) Precip ( " mm )
12:53 am 00:53 Clear 60 15.6 57 13.9 90 90 SSE 12 19 29.81 1010 10 16 0.00 0.00
1:53 am 01:53 Clear 62 16.7 57 13.9 84 84 S 14 22 29.76 1008 10 16 0.00 0.00
2:53 am 02:53 Mostly Clear 63 17.2 57 13.9 81 81 S 12 19 29.74 1007 10 16 0.00 0.00
3:53 am 03:53 Cloudy 68 20 57 13.9 68 68 SSW 21 33 29.71 1006 10 16 0.00 0.00
4:53 am 04:53 Mostly Cloudy 69 20.6 57 13.9 66 66 SSW 24 39 29.70 1006 10 16 0.00 0.00
5:53 am 05:53 Cloudy 69 20.6 57 13.9 66 66 SSW 20 31 29.71 1006 10 16 0.00 0.00
6:53 am 06:53 Cloudy with Rain 64 17.8 60 15.6 87 87 NW 7 11 29.74 1007 3 5 0.12 3.05
7:16 am 07:16 Cloudy with Rain 62 16.7 60 15.6 93 93 WNW 7 11 29.75 1007 3 4 0.11 2.79
7:26 am 07:26 Cloudy with Heavy Rain 62 16.7 60 15.6 93 93 undefined N/A 29.75 1007 1 2 0.29 7.37
7:36 am 07:36 Cloudy with Heavy Rain 62 16.7 59 15 90 90 WSW 17 28 29.74 1007 2 2 0.36 9.14
7:46 am 07:46 Cloudy with Heavy Rain 62 16.7 59 15 90 90 WSW 13 20 29.74 1007 3 4 0.41 10.41
7:53 am 07:53 Cloudy with Heavy Rain 62 16.7 59 15 90 90 WSW 16 26 29.75 1007 2 2 0.48 12.19
8:04 am 08:04 Cloudy with Heavy Rain 62 16.7 60 15.6 93 93 WSW 13 20 29.75 1007 1 2 0.12 3.05
8:26 am 08:26 Cloudy with Rain 61 16.1 60 15.6 97 97 SW 7 11 29.72 1007 2 3 0.28 7.11
8:37 am 08:37 Cloudy with Light Rain 61 16.1 60 15.6 97 97 WSW 8 13 29.74 1007 4 6 0.30 7.62
8:48 am 08:48 Cloudy with Light Rain 61 16 61 16 100 100 SW 12 19 29.75 1008 7 11 0.31 7.87
8:53 am 08:53 Cloudy with Rain 61 16.1 60 15.6 97 97 SW 10 17 29.75 1007 5 8 0.33 8.38
9:04 am 09:04 Cloudy with Rain 61 16.1 60 15.6 97 97 SW 8 13 29.74 1007 3 4 0.03 0.76
9:11 am 09:11 Cloudy with Rain 61 16.1 60 15.6 97 97 SW 9 15 29.74 1007 4 6 0.05 1.27
9:53 am 09:53 Cloudy with Light Rain 61 16.1 59 15 93 93 SW 14 22 29.74 1007 6 10 0.14 3.56
10:40 am 10:40 Cloudy 62 16.7 59 15 90 90 SW 14 22 29.75 1007 10 16 0.00 0.00
10:53 am 10:53 Cloudy 62 16.7 58 14.4 86 86 SW 13 20 29.75 1008 10 16 0.00 0.00
11:19 am 11:19 Mostly Cloudy 64 17.8 58 14.4 81 81 SW 14 22 29.75 1007 10 16 0.00 0.00
11:53 am 11:53 Cloudy with Rain 62 16.7 57 13.9 84 84 WSW 14 22 29.77 1008 3 5 0.03 0.76
12:10 pm 12:10 Cloudy 54 12.2 50 10 87 87 WNW 25 41 29.82 1010 10 16 0.00 0.00
12:21 pm 12:21 Cloudy 51 10.6 47 8.3 86 86 WNW 23 37 29.86 1011 10 16 0.00 0.00
12:46 pm 12:46 Cloudy 50 10 46 7.8 86 86 WNW 14 22 29.88 1012 10 16 0.00 0.00
12:53 pm 12:53 Cloudy 50 10 45 7.2 83 83 W 17 28 29.88 1012 10 16 0.00 0.00
1:28 pm 13:28 Cloudy 47 8.3 43 6.1 86 86 W 10 17 29.91 1013 10 16 0.00 0.00
1:38 pm 13:38 Cloudy 46 7.8 42 5.6 86 86 WNW 18 30 29.95 1014 10 16 0.00 0.00
1:53 pm 13:53 Cloudy 46 7.8 41 5 83 83 W 13 20 29.95 1014 10 16 0.00 0.00
2:01 pm 14:01 Cloudy 46 7.8 40 4.4 79 79 WNW 12 19 29.97 1015 10 16 0.00 0.00
2:53 pm 14:53 Cloudy 46 7.8 38 3.3 73 73 WNW 13 20 29.96 1015 10 16 0.00 0.00
3:53 pm 15:53 Cloudy 44 6.7 36 2.2 73 73 WNW 12 19 30.00 1016 10 16 0.00 0.00
4:53 pm 16:53 Cloudy 43 6.1 35 1.7 74 74 WNW 15 24 30.03 1017 10 16 0.00 0.00
5:53 pm 17:53 Cloudy 42 5.6 34 1.1 73 73 W 7 11 30.07 1018 10 16 0.00 0.00
6:53 pm 18:53 Cloudy 41 5 33 0.6 73 73 VRB 7 11 30.11 1020 10 16 0.00 0.00
7:03 pm 19:03 Cloudy 41 5 33 0.6 73 73 W 12 19 30.15 1021 10 16 0.00 0.00
7:53 pm 19:53 Cloudy 40 4.4 33 0.6 77 77 WNW 9 15 30.15 1021 10 16 0.00 0.00
8:53 pm 20:53 Cloudy 39 3.9 31 -0.6 73 73 WNW 9 15 30.17 1022 10 16 0.00 0.00
9:53 pm 21:53 Cloudy 39 3.9 30 -1.1 70 70 NW 8 13 30.20 1023 10 16 0.00 0.00
10:53 pm 22:53 Cloudy 38 3.3 30 -1.1 73 73 WNW 9 15 30.21 1023 10 16 0.00 0.00
11:53 pm 23:53 Cloudy 38 3.3 28 -2.2 68 68 NW 8 13 30.21 1023 10 16 0.00 0.00

Powered by AerisWeather